DELTA 1 DEB, 21269

Orbit data source: Space-Track

DELTA 1 DEB, 21269 is space debris in SSO originally from a launch on Thu, 12 Jun 1975 UTC launched from the Air Force Western Test Range (AFWTR). Debris objects in space refer to the collection of defunct objects orbiting the Earth. Examples of debris include non-operational satellites, rocket bodies, and fragments generated from explosions, collisions, or faulty payload assembly.

Loading next visibility...
Identifier
21269, 1975-052E
Orbit
SSO
Country
Flag of USUS
Related business
Manufacturer
Unknown
Mission
Spacecraft
Bus & Motor
Unknown
Mass
Unknown
Launch date (UTC)
1975-06-12 (51 years ago)
Launch vehicle
Unknown
Launch site
Air Force Western Test Range (AFWTR)
Object type
Payload
Rocket body
Debris
Shape & HBR
Unknown shape, 0.3 m
Radar Cross Section
Medium (>0.1 m² and <1 m²)

Expand to show TLE details & history
Last TLE update: 9 hours ago

TLE from 9 hours ago
0 DELTA 1 DEB
1 21269U 75052E   26169.13548509  .00000071  00000-0  25257-3 0  9990
2 21269  99.7193  39.9461 0119130  14.8816 136.1436 13.23737493695641
Epoch: 2026-06-18T03:15Z
TLE epoch observation values (Epoch: 2026-06-18T03:15:05.911Z)
Latitude
27.64153°
Longitude
-90.09123°
Altitude
1,239.09 km
Speed
7.206 km/s
True Right ascension
15h 00m 15s
True Declination
27° 30' 34"
Sunlit
Object was in daylight at epoch
Visualization orbit readout
Latitude
Unknown
Longitude
Unknown
Altitude
Unknown
Speed
Unknown
Apparent Right ascension
Unknown
Apparent Declination
Unknown
Sunlit
N/A
Visualization observer readout
Local Sidereal Time
23:02:23
Azimuth
Unknown
Elevation
Unknown
Doppler factor
Unknown
Orbital elements
Apogee altitude
1,257.71 km
Perigee altitude
1,077.92 km
Semi-major axis
7,545.952 km
Eccentricity
0.01191
Inclination
99.7193°
RAAN
39.9461°
Arg. of periapsis
14.8816°
True anomaly
137.07934°
Mean anomaly
136.1436°
Eccentric anomaly
136.61247°
Mean motion
3.3111 °/min
Orbital period
108.73 mins
BSTAR
0.00025257
Loading maneuver chart data...
Computing Atmospheric mass density...

Documentation

Showing up to 5 results
|